Denver, CO

3:55 PM MDT on August 16, 2017 (GMT -0600)
Denver International

Weather History for KDEN - April, 2013

Change the Weather History Date:

Tuesday, April 23, 2013

  Actual Average Record
Temperature  
Mean Temperature 25 °F 49 °F  
Max Temperature 30 °F 63 °F 85 °F (1989)
Min Temperature 19 °F 35 °F 17 °F (1873)
Degree Days  
Heating Degree Days 40 16  
Month to date heating degree days 609 426  
Since 1 July heating degree days 5721 5628  
Cooling Degree Days 0 0  
Month to date cooling degree days 0 0  
Year to date cooling degree days 0 0  
Moisture  
Dew Point 15 °F    
Average Humidity 67    
Maximum Humidity 84    
Minimum Humidity 50    
Precipitation  
Precipitation 0.14 in 0.07 in 2.26 in (1885)
Month to date precipitation 1.87 1.22  
Year to date precipitation 4.42 2.92  
Snow  
Snow 1.80 in - - ()
Month to date snowfall 20.4  
Since 1 July snowfall 75  
Snow Depth 3.00 in    
Sea Level Pressure  
Sea Level Pressure 30.25 in    
Wind  
Wind Speed 7 mph (ENE)    
Max Wind Speed 15 mph    
Max Gust Speed 18 mph    
Visibility 4 miles    
Events Snow    
T = Trace of Precipitation, MM = Missing Value Source: NWS Daily Summary

Daily Weather History Graph

Daily Weather History Graph

Search for Another Location

Airport or City:

Trip Planner

Search our weather history database for the weather conditions in past years. The results will help you decide how hot, cold, wet, or windy it might be!

Date:

Astronomy

Apr. 23, 2013 Rise Set
Actual Time 6:09 AM MDT 7:45 PM MDT
Civil Twilight 5:40 AM MDT 8:14 PM MDT
Nautical Twilight 5:06 AM MDT 8:48 PM MDT
Astronomical Twilight 4:29 AM MDT 9:25 PM MDT
Moon 5:43 PM MDT (4/23) 4:38 AM MDT (4/23)
Length of Visible Light 14h 33m
Length of Day
13h 36m
Waxing Gibbous, 94% of the Moon is Illuminated
Apr 23
Waxing Gibbous
Apr 25
Full
May 2
Last Quarter
May 9
New
May 17
First Quarter

Hourly Weather History & Observations

Time (MDT) Temp. Windchill Dew Point Humidity Pressure Visibility Wind Dir Wind Speed Gust Speed Precip Events Conditions
12:53 AM 21.0 °F 10.6 °F 17.1 °F 85% 30.32 in 1.2 mi ENE 9.2 mph - 0.02 in Snow Light Snow
1:15 AM 21.2 °F 11.7 °F 17.6 °F 86% 30.22 in 1.0 mi ENE 8.1 mph - 0.01 in Snow Light Snow
1:27 AM 21.2 °F 13.6 °F 17.6 °F 86% 30.23 in 1.2 mi NE 5.8 mph - 0.01 in Snow Light Snow
1:53 AM 21.0 °F 14.6 °F 17.1 °F 85% 30.34 in 1.8 mi NE 4.6 mph - 0.02 in Snow Light Snow
2:53 AM 21.0 °F 11.4 °F 17.1 °F 85% 30.28 in 1.5 mi ENE 8.1 mph - 0.01 in Snow Light Snow
3:08 AM 21.2 °F 12.6 °F 15.8 °F 80% 30.17 in 2.0 mi ENE 6.9 mph - 0.01 in Snow Light Snow
3:16 AM 21.2 °F 13.6 °F 17.6 °F 86% 30.18 in 1.8 mi ENE 5.8 mph - 0.01 in Snow Light Snow
3:30 AM 21.2 °F 12.6 °F 15.8 °F 80% 30.18 in 2.0 mi ENE 6.9 mph - 0.01 in Snow Light Snow
3:50 AM 19.4 °F 9.5 °F 15.8 °F 86% 30.19 in 1.8 mi NE 8.1 mph - 0.01 in Snow Light Snow
3:53 AM 19.4 °F 9.5 °F 15.8 °F 86% 30.19 in 1.8 mi NE 8.1 mph - N/A Snow Light Snow
4:04 AM 19.4 °F 9.5 °F 15.8 °F 86% 30.19 in 1.8 mi NNE 8.1 mph - 0.00 in Snow Light Snow
4:14 AM 19.4 °F 7.9 °F 15.8 °F 86% 30.19 in 2.0 mi NE 10.4 mph - 0.00 in Snow Light Snow
4:26 AM 19.4 °F 8.6 °F 15.8 °F 86% 30.19 in 1.2 mi NE 9.2 mph - 0.00 in Snow Light Snow
4:53 AM 19.9 °F 10.1 °F 16.0 °F 85% 30.29 in 1.0 mi NE 8.1 mph - 0.02 in Snow Light Snow
5:53 AM 19.9 °F 11.1 °F 15.1 °F 81% 30.30 in 1.0 mi ENE 6.9 mph - 0.01 in Snow Light Snow
6:38 AM 19.4 °F 10.4 °F 15.8 °F 86% 30.19 in 0.8 mi East 6.9 mph - 0.01 in Snow Light Snow
6:53 AM 19.9 °F 8.6 °F 15.1 °F 81% 30.32 in 0.5 mi ENE 10.4 mph - 0.01 in Snow Snow
7:19 AM 19.4 °F 6.6 °F 14.0 °F 80% 30.21 in 0.5 mi ENE 12.7 mph - 0.01 in Snow Snow
7:41 AM 19.4 °F 6.6 °F 14.0 °F 80% 30.21 in 1.0 mi ENE 12.7 mph - 0.02 in Snow Light Snow
7:53 AM 19.0 °F 6.8 °F 14.0 °F 81% 30.34 in 1.0 mi ENE 11.5 mph - 0.02 in Snow Light Snow
8:28 AM 19.4 °F 7.9 °F 14.0 °F 80% 30.22 in 0.8 mi ENE 10.4 mph - 0.01 in Snow Light Snow
8:47 AM 19.4 °F 8.6 °F 14.0 °F 80% 30.22 in 1.0 mi NE 9.2 mph - 0.01 in Snow Light Snow
8:53 AM 19.0 °F 8.2 °F 14.0 °F 81% 30.35 in 1.0 mi NE 9.2 mph - 0.02 in Snow Light Snow
9:30 AM 19.4 °F 8.6 °F 12.2 °F 74% 30.22 in 2.0 mi ENE 9.2 mph - 0.00 in Snow Light Snow
9:45 AM 21.2 °F 11.7 °F 14.0 °F 74% 30.22 in 2.0 mi NE 8.1 mph - 0.01 in Snow Light Snow
9:48 AM 21.2 °F 12.6 °F 14.0 °F 74% 30.22 in 2.0 mi NE 6.9 mph - 0.01 in Snow Light Snow
9:53 AM 21.0 °F 12.4 °F 15.1 °F 78% 30.34 in 2.0 mi NE 6.9 mph - 0.01 in Snow Light Snow
10:06 AM 21.2 °F 12.6 °F 12.2 °F 68% 30.22 in 2.0 mi NE 6.9 mph - 0.00 in Snow Light Snow
10:38 AM 21.2 °F 16.4 °F 12.2 °F 68% 30.22 in 5.0 mi Variable 3.5 mph - 0.00 in Snow Light Snow
10:53 AM 19.9 °F - 12.9 °F 74% 30.35 in 6.0 mi Calm Calm - 0.00 in   Haze
11:53 AM 21.9 °F - 12.9 °F 68% 30.32 in 10.0 mi Calm Calm - 0.01 in   Mostly Cloudy
12:53 PM 23.0 °F - 12.0 °F 63% 30.30 in 10.0 mi Calm Calm - N/A   Mostly Cloudy
1:53 PM 28.0 °F - 12.0 °F 51% 30.25 in 10.0 mi Calm Calm - 0.00 in   Mostly Cloudy
2:53 PM 26.1 °F - 12.9 °F 58% 30.24 in 10.0 mi Calm Calm - N/A   Mostly Cloudy
3:53 PM 28.0 °F 24.2 °F 14.0 °F 56% 30.23 in 10.0 mi East 3.5 mph - N/A   Mostly Cloudy
4:53 PM 28.0 °F 22.8 °F 12.9 °F 53% 30.21 in 10.0 mi SSE 4.6 mph - N/A   Scattered Clouds
5:53 PM 28.9 °F 23.9 °F 12.9 °F 51% 30.21 in 10.0 mi South 4.6 mph - N/A   Scattered Clouds
6:53 PM 28.9 °F 22.8 °F 15.1 °F 56% 30.22 in 10.0 mi South 5.8 mph - N/A   Scattered Clouds
7:53 PM 28.0 °F 20.0 °F 17.1 °F 63% 30.24 in 10.0 mi South 8.1 mph - N/A   Partly Cloudy
8:53 PM 27.0 °F 18.7 °F 17.1 °F 66% 30.27 in 10.0 mi SSW 8.1 mph - N/A   Partly Cloudy
9:53 PM 28.9 °F 19.8 °F 18.0 °F 64% 30.26 in 9.0 mi SSW 10.4 mph - N/A   Partly Cloudy
10:53 PM 28.9 °F 18.6 °F 17.1 °F 61% 30.26 in 8.0 mi SW 12.7 mph - N/A   Partly Cloudy
11:53 PM 28.0 °F 17.5 °F 16.0 °F 61% 30.24 in 10.0 mi SSW 12.7 mph - N/A   Clear